Weather History for Beaumont, TX

Change the Weather History Date:

Sunday, November 6, 2011

  Actual Average Record
Temperature  
Mean Temperature 72 °F 65 °F  
Max Temperature 80 °F 75 °F 87 °F (1963)
Min Temperature 64 °F 55 °F 35 °F (1959)
Degree Days  
Heating Degree Days 0 3  
Month to date heating degree days 24 18  
Since 1 July heating degree days 61 52  
Cooling Degree Days 7 3  
Month to date cooling degree days 14 20  
Year to date cooling degree days 3389 2811  
Growing Degree Days 21 (Base 50)    
Moisture  
Dew Point 63 °F    
Average Humidity 79    
Maximum Humidity 93    
Minimum Humidity 64    
Precipitation  
Precipitation 0.00 in 0.15 in 3.60 in (1925)
Month to date precipitation 0.12 0.91  
Year to date precipitation 25.93 51.69  
Snow  
Snow 0.00 in 0.00 in 0.00 in ()
Month to date snowfall 0.0 0.0  
Since 1 July snowfall 0.0 0.0  
Since 1 September snowfall 0.0 0.0  
Snow Depth 0.00 in    
Sea Level Pressure  
Sea Level Pressure 30.07 in    
Wind  
Wind Speed 12 mph (ESE)    
Max Wind Speed 21 mph    
Max Gust Speed 25 mph    
Visibility 10 miles    
Events      
T = Trace of Precipitation, MM = Missing Value Source: NWS Daily Summary

Daily Weather History Graph

Daily Weather History Graph

Search for Another Location

Airport:

Trip Planner

Search our weather history database for the weather conditions in past years. The results will help you decide how hot, cold, wet, or windy it might be!

Date:

Astronomy

Nov. 06, 2011 Rise Set
Actual Time 6:33 AM CST 5:25 PM CST
Civil Twilight 6:08 AM CST 5:50 PM CST
Nautical Twilight 5:40 AM CST 6:18 PM CST
Astronomical Twilight 5:12 AM CST 6:46 PM CST
Moon 2:57 PM CST (11/6) 2:54 AM CST (11/6)
Length of Visible Light 11h 41m
Length of Day
10h 51m
Waxing Gibbous, 86% of the Moon is Illuminated
Nov 6
Waxing Gibbous
Nov 10
Full
Nov 18
Last Quarter
Nov 25
New
Dec 2
First Quarter

Hourly Weather History & Observations

Time (CST) Temp. Dew Point Humidity Pressure Visibility Wind Dir Wind Speed Gust Speed Precip Events Conditions
12:53 AM 66.0 °F 61.0 °F 84% 30.02 in 10.0 mi East 8.1 mph - 0.00 in   Overcast
1:53 AM 66.0 °F 62.1 °F 87% 30.02 in 10.0 mi ESE 9.2 mph - N/A   Mostly Cloudy
1:16 AM 66.2 °F 62.6 °F 88% 30.02 in 10.0 mi East 10.4 mph - N/A   Mostly Cloudy
1:53 AM 66.0 °F 62.1 °F 87% 30.03 in 10.0 mi East 8.1 mph - N/A   Overcast
2:39 AM 66.2 °F 62.6 °F 88% 30.03 in 9.0 mi East 8.1 mph - N/A   Overcast
2:53 AM 66.0 °F 62.1 °F 87% 30.04 in 9.0 mi East 9.2 mph - N/A   Overcast
3:53 AM 64.9 °F 62.1 °F 90% 30.03 in 7.0 mi East 9.2 mph - N/A   Mostly Cloudy
4:53 AM 64.9 °F 62.1 °F 90% 30.03 in 8.0 mi East 8.1 mph - N/A   Overcast
5:53 AM 64.9 °F 61.0 °F 87% 30.04 in 8.0 mi East 9.2 mph - N/A   Mostly Cloudy
6:53 AM 64.0 °F 61.0 °F 90% 30.06 in 8.0 mi East 11.5 mph - N/A   Mostly Cloudy
7:53 AM 66.0 °F 61.0 °F 84% 30.08 in 10.0 mi East 11.5 mph - N/A   Overcast
8:53 AM 66.9 °F 61.0 °F 81% 30.09 in 10.0 mi East 16.1 mph - N/A   Overcast
9:53 AM 72.0 °F 63.0 °F 73% 30.11 in 10.0 mi ESE 15.0 mph - N/A   Overcast
10:53 AM 75.0 °F 64.0 °F 69% 30.11 in 10.0 mi ESE 12.7 mph - N/A   Overcast
11:53 AM 77.0 °F 64.9 °F 66% 30.10 in 10.0 mi ESE 11.5 mph - N/A   Overcast
12:53 PM 78.1 °F 66.0 °F 66% 30.07 in 10.0 mi ESE 15.0 mph - N/A   Overcast
1:53 PM 78.1 °F 66.0 °F 66% 30.04 in 10.0 mi ESE 18.4 mph - N/A   Mostly Cloudy
2:53 PM 77.0 °F 64.9 °F 66% 30.05 in 10.0 mi ESE 17.3 mph - N/A   Overcast
3:53 PM 75.0 °F 64.9 °F 71% 30.06 in 10.0 mi ESE 13.8 mph - N/A   Overcast
4:53 PM 73.0 °F 64.9 °F 76% 30.06 in 10.0 mi ESE 12.7 mph - N/A   Overcast
5:53 PM 72.0 °F 64.9 °F 78% 30.08 in 10.0 mi ESE 12.7 mph - N/A   Overcast
6:53 PM 71.1 °F 64.9 °F 81% 30.09 in 10.0 mi ESE 11.5 mph - N/A   Overcast
7:53 PM 71.1 °F 64.9 °F 81% 30.10 in 10.0 mi ESE 11.5 mph - N/A   Overcast
8:53 PM 71.6 °F 64.4 °F 78% 30.11 in 10.0 mi ESE 13.8 mph - N/A   Mostly Cloudy
9:53 PM 70.0 °F 64.9 °F 84% 30.11 in 10.0 mi ESE 12.7 mph - N/A   Partly Cloudy
10:53 PM 69.1 °F 64.9 °F 87% 30.12 in 10.0 mi ESE 16.1 mph - N/A   Clear